This demonstration page uses our WeatherBlox Daily Observations layout. Learn more.

40.92945, -100.16068

Hourly Observations for November 2, 2020

Temp ( °F °C ) Dew Point ( °F °C ) Humidity (%) Winds ( mph kmh ) Pressure ( in mb ) Visibility ( mi km ) Precip ( " mm )
12:15 am 00:15 Clear 42 5.5 21 -6 44 44 S 9 15 30.42 1030 10 16.0934 0 0
12:35 am 00:35 Clear 41 5.2 22 -5.7 46 46 S 8 13 30.42 1030 10 16.0934 0 0
12:55 am 00:55 Clear 42 5.5 23 -5 47 47 SW 10 17 30.41 1030 10 16.0934 0 0
1:15 am 01:15 Clear 42 5.5 23 -4.9 47 47 SSW 6 9 30.41 1030 10 16.0934 0 0
1:35 am 01:35 Clear 41 5 23 -4.9 49 49 Calm 30.42 1030 10 16.0934 0 0
1:55 am 01:55 Clear 38 3.2 22 -5.3 54 54 Calm 30.43 1030 10 16.0934 0 0
2:15 am 02:15 Clear 37 2.9 23 -4.8 57 57 Calm 30.43 1030 10 16.0934 0 0
2:35 am 02:35 Clear 35 1.5 22 -5.7 59 59 Calm 30.44 1031 10 16.0934 0 0
2:55 am 02:55 Clear 32 -0.1 22 -5.8 66 66 SSW 3 6 30.45 1031 10 16.0934 0 0
3:15 am 03:15 Clear 29 -1.5 19 -7 67 67 SW 3 6 30.46 1032 10 16.0934 0 0
3:35 am 03:35 Clear 31 -0.6 21 -6.1 67 67 SW 5 7 30.44 1031 10 16.0934 0 0
3:55 am 03:55 Clear 31 -0.7 21 -6 68 68 Calm 30.45 1031 10 16.0934 0 0
4:15 am 04:15 Clear 30 -0.9 21 -5.9 69 69 Calm 30.44 1031 10 16.0934 0 0
4:35 am 04:35 Clear 29 -1.6 20 -6.4 70 70 WNW 3 6 30.44 1031 10 16.0934 0 0
4:55 am 04:55 Clear 29 -1.5 21 -5.9 72 72 WNW 7 11 30.44 1031 10 16.0934 0 0
5:15 am 05:15 Clear 31 -0.5 22 -5.6 69 69 W 5 7 30.43 1031 10 16.0934 0 0
5:35 am 05:35 Clear 28 -2.3 21 -6.3 74 74 W 7 11 30.45 1031 10 16.0934 0 0
5:55 am 05:55 Clear 29 -1.6 22 -5.8 73 73 WSW 6 9 30.44 1031 10 16.0934 0 0
6:15 am 06:15 Clear 28 -2.5 21 -5.9 78 78 WNW 5 7 30.45 1031 10 16.0934 0 0
6:35 am 06:35 Clear 28 -2.5 21 -6 77 77 W 8 13 30.44 1031 10 16.0934 0 0
6:55 am 06:55 Clear 27 -2.7 21 -5.9 79 79 W 7 11 30.44 1031 10 16.0934 0 0
7:15 am 07:15 Sunny 28 -2.3 22 -5.3 80 80 NW 8 13 30.44 1031 10 16.0934 0 0
7:35 am 07:35 Sunny 30 -1.3 23 -5.1 76 76 WNW 8 13 30.42 1030 10 16.0934 0 0
7:55 am 07:55 Sunny 32 -0.2 24 -4.6 73 73 NW 8 13 30.41 1030 10 16.0934 0 0
8:15 am 08:15 Sunny 34 1 26 -3.6 72 72 WNW 7 11 30.41 1030 10 16.0934 0 0
8:35 am 08:35 Sunny 37 2.9 28 -2.4 68 68 WNW 6 9 30.39 1029 10 16.0934 0 0
8:55 am 08:55 Sunny 39 4 29 -1.9 66 66 WNW 10 17 30.39 1029 10 16.0934 0 0
9:15 am 09:15 Sunny 42 5.5 30 -1.2 62 62 W 9 15 30.37 1029 10 16.0934 0 0
9:35 am 09:35 Sunny 45 7.3 31 -0.7 57 57 WNW 10 17 30.36 1028 10 16.0934 0 0
9:55 am 09:55 Sunny 48 9.1 31 -0.3 52 52 WNW 10 17 30.33 1027 10 16.0934 0 0
10:15 am 10:15 Sunny 51 10.7 32 -0.1 48 48 W 8 13 30.3 1026 10 16.0934 0 0
10:35 am 10:35 Sunny 55 12.5 32 0 43 43 W 6 9 30.29 1026 10 16.0934 0 0
10:55 am 10:55 Sunny 57 14 32 0 39 39 W 5 7 30.26 1025 10 16.0934 0 0
11:15 am 11:15 Sunny 60 15.5 32 0 35 35 W 6 9 30.24 1024 10 16.0934 0 0
11:35 am 11:35 Sunny 62 16.9 30 -1.2 29 29 Calm 30.22 1023 10 16.0934 0 0
11:55 am 11:55 Sunny 65 18.4 30 -1.2 27 27 Calm 30.21 1023 10 16.0934 0 0
12:15 pm 12:15 Sunny 67 19.7 28 -2.2 23 23 Calm 30.18 1022 10 16.0934 0 0
12:35 pm 12:35 Sunny 69 20.6 26 -3.2 20 20 Calm 30.17 1022 10 16.0934 0 0
12:55 pm 12:55 Sunny 70 21.3 28 -2.4 20 20 WSW 3 6 30.15 1021 10 16.0934 0 0
1:15 pm 13:15 Sunny 72 22 26 -3.1 18 18 Calm 30.13 1020 10 16.0934 0 0
1:35 pm 13:35 Sunny 72 22.4 26 -3.3 18 18 W 3 6 30.12 1020 10 16.0934 0 0
1:55 pm 13:55 Sunny 73 23 26 -3.5 17 17 Calm 30.1 1019 10 16.0934 0 0
2:15 pm 14:15 Sunny 74 23.3 26 -3.6 16 16 Calm 30.08 1019 10 16.0934 0 0
2:35 pm 14:35 Sunny 75 23.7 26 -3.4 16 16 Calm 30.07 1018 10 16.0934 0 0
2:55 pm 14:55 Sunny 75 24 26 -3.2 16 16 ENE 3 6 30.06 1018 10 16.0934 0 0
3:15 pm 15:15 Sunny 76 24.4 26 -3.2 16 16 Calm 30.05 1018 10 16.0934 0 0
3:35 pm 15:35 Sunny 76 24.7 27 -2.9 16 16 Calm 30.05 1018 10 16.0934 0 0
3:55 pm 15:55 Sunny 77 25.1 27 -2.8 16 16 WSW 7 11 30.05 1018 10 16.0934 0 0
4:15 pm 16:15 Sunny 77 24.9 27 -2.6 16 16 WSW 6 9 30.04 1017 10 16.0934 0 0
4:35 pm 16:35 Sunny 76 24.3 28 -2.5 17 17 SW 3 6 30.05 1017 10 16.0934 0 0
4:55 pm 16:55 Sunny 74 23.5 29 -1.5 19 19 Calm 30.05 1018 10 16.0934 0 0
5:15 pm 17:15 Sunny 69 20.5 31 -0.6 24 24 S 7 11 30.07 1018 7 11.26538 0 0
5:35 pm 17:35 Hazy 64 17.7 29 -1.4 27 27 SSW 6 9 30.09 1019 5 8.0467 0 0
5:55 pm 17:55 Clear 61 16 29 -1.6 30 30 Calm 30.11 1020 7 11.26538 0 0
6:15 pm 18:15 Clear 57 13.9 28 -2 34 34 E 3 6 30.13 1020 10 16.0934 0 0
6:35 pm 18:35 Clear 55 12.8 28 -2.1 36 36 Calm 30.14 1021 7 11.26538 0 0
6:55 pm 18:55 Hazy 52 11.1 29 -1.4 42 42 E 3 6 30.15 1021 5 8.0467 0 0
7:15 pm 19:15 Clear 53 11.9 29 -1.9 39 39 Calm 30.14 1021 10 16.0934 0 0
7:35 pm 19:35 Clear 51 10.5 28 -2.2 41 41 Calm 30.16 1021 10 16.0934 0 0
7:55 pm 19:55 Clear 51 10.4 28 -2.3 41 41 Calm 30.15 1021 10 16.0934 0 0
8:15 pm 20:15 Clear 48 8.7 27 -2.8 45 45 Calm 30.16 1021 7 11.26538 0 0
8:35 pm 20:35 Clear 46 8 27 -2.6 47 47 Calm 30.17 1022 7 11.26538 0 0
8:55 pm 20:55 Clear 48 8.7 28 -2.1 47 47 Calm 30.16 1021 7 11.26538 0 0
9:15 pm 21:15 Clear 43 5.9 27 -2.9 54 54 E 6 9 30.18 1022 10 16.0934 0 0
9:35 pm 21:35 Clear 44 6.7 27 -2.6 52 52 Calm 30.17 1022 7 11.26538 0 0
9:55 pm 21:55 Clear 42 5.8 27 -2.8 54 54 E 5 7 30.17 1022 10 16.0934 0 0
10:15 pm 22:15 Clear 41 4.8 27 -2.9 58 58 E 7 11 30.18 1022 10 16.0934 0 0
10:35 pm 22:35 Clear 41 5 26 -3.1 56 56 Calm 30.18 1022 10 16.0934 0 0
10:55 pm 22:55 Clear 37 2.5 26 -3.6 64 64 Calm 30.2 1023 10 16.0934 0 0
11:15 pm 23:15 Clear 36 2.3 26 -3.4 66 66 Calm 30.2 1023 10 16.0934 0 0
11:35 pm 23:35 Clear 36 2.1 25 -3.9 65 65 Calm 30.2 1023 10 16.0934 0 0
11:55 pm 23:55 Clear 35 1.9 25 -3.8 66 66 NW 5 7 30.2 1023 10 16.0934 0 0

Powered by AerisWeather